Guana Lake Weather Center

Moon Phase Calendar



Guana Lake Water Level
Online Cameras

 


      

Current Conditions in Kingsley Mobile Home Park
7/1/2022 12:45:32 PM

89°F
Feels Like 100
Clouds
Humidity
66%
Pressure
30.12"
Wind
6.9 mph (SW)
Dew Point
76°F
UV Index
8/10 (Very High)
Visibility
6 mi

Hourly Forecast

Date & Time Fri, Jul 1
12:00 PM
Fri, Jul 1
1:00 PM
Fri, Jul 1
2:00 PM
Fri, Jul 1
3:00 PM
Fri, Jul 1
4:00 PM
Fri, Jul 1
5:00 PM
Fri, Jul 1
6:00 PM
Fri, Jul 1
7:00 PM
Fri, Jul 1
8:00 PM
Fri, Jul 1
9:00 PM
Fri, Jul 1
10:00 PM
Fri, Jul 1
11:00 PM
Sat, Jul 2
12:00 AM
Sat, Jul 2
1:00 AM
Sat, Jul 2
2:00 AM
Sat, Jul 2
3:00 AM
Sat, Jul 2
4:00 AM
Sat, Jul 2
5:00 AM
Sat, Jul 2
6:00 AM
Sat, Jul 2
7:00 AM
Sat, Jul 2
8:00 AM
Sat, Jul 2
9:00 AM
Sat, Jul 2
10:00 AM
Sat, Jul 2
11:00 AM
Sat, Jul 2
12:00 PM
Sat, Jul 2
1:00 PM
Sat, Jul 2
2:00 PM
Sat, Jul 2
3:00 PM
Sat, Jul 2
4:00 PM
Sat, Jul 2
5:00 PM
Sat, Jul 2
6:00 PM
Sat, Jul 2
7:00 PM
Sat, Jul 2
8:00 PM
Sat, Jul 2
9:00 PM
Sat, Jul 2
10:00 PM
Sat, Jul 2
11:00 PM
Sun, Jul 3
12:00 AM
Sun, Jul 3
1:00 AM
Sun, Jul 3
2:00 AM
Sun, Jul 3
3:00 AM
Sun, Jul 3
4:00 AM
Sun, Jul 3
5:00 AM
Sun, Jul 3
6:00 AM
Sun, Jul 3
7:00 AM
Sun, Jul 3
8:00 AM
Sun, Jul 3
9:00 AM
Sun, Jul 3
10:00 AM
Sun, Jul 3
11:00 AM
Condition
Rain

Clouds

Clouds

Clouds

Rain

Rain

Rain

Rain

Rain

Rain

Rain

Rain

Clouds

Clouds

Clouds

Rain

Clouds

Clouds

Clouds

Clouds

Clouds

Clouds

Clouds

Rain

Clouds

Rain

Rain

Clouds

Rain

Rain

Rain

Rain

Rain

Rain

Rain

Rain

Rain

Rain

Clouds

Clouds

Clouds

Clouds

Rain

Rain

Rain

Rain

Clouds

Clouds
Temperature 88°F89°F88°F86°F84°F79°F77°F79°F79°F75°F75°F75°F75°F75°F74°F74°F74°F74°F74°F74°F76°F78°F81°F84°F88°F89°F89°F85°F83°F84°F82°F82°F80°F79°F78°F76°F75°F76°F76°F76°F76°F75°F74°F74°F75°F77°F80°F85°F
Feels Like 98°F100°F98°F95°F92°F79°F79°F79°F80°F77°F77°F77°F76°F76°F76°F75°F75°F76°F76°F76°F77°F79°F85°F90°F93°F95°F95°F91°F88°F90°F88°F88°F85°F79°F80°F78°F77°F77°F78°F78°F77°F77°F76°F75°F76°F79°F85°F90°F
Cloudiness 80%75%80%85%90%95%100%100%100%100%100%100%100%100%100%100%100%100%100%100%100%100%100%99%97%97%96%100%100%95%84%85%84%68%84%89%92%94%95%100%98%98%90%89%89%72%59%50%
Visibility 6 mi6 mi6 mi6 mi6 mi6 mi6 mi6 mi2 mi4 mi6 mi6 mi6 mi6 mi6 mi6 mi6 mi6 mi6 mi6 mi6 mi6 mi6 mi6 mi6 mi6 mi6 mi6 mi6 mi6 mi6 mi6 mi6 mi6 mi5 mi5 mi6 mi6 mi6 mi6 mi6 mi6 mi6 mi6 mi6 mi6 mi6 mi6 mi
Precipitation 59%63%59%36%51%66%96%100%100%100%100%100%80%80%76%33%26%22%28%27%27%30%34%42%42%46%46%36%44%59%72%86%92%100%100%100%100%100%80%7%11%16%40%24%31%34%14%16%
Humidity 64%66%64%68%73%85%90%84%84%95%91%89%87%89%90%91%90%89%89%88%87%83%75%65%56%53%57%66%72%68%73%76%82%83%86%92%95%93%90%89%88%89%90%90%87%84%76%64%
Dew Point 75°F76°F75°F75°F75°F75°F74°F74°F73°F74°F72°F72°F71°F71°F71°F71°F71°F71°F71°F71°F71°F72°F72°F71°F70°F69°F70°F72°F73°F72°F73°F74°F74°F73°F73°F73°F73°F73°F73°F73°F72°F72°F71°F71°F71°F72°F72°F71°F
Pressure 30.12"30.12"30.12"30.09"30.06"30.06"30.03"30.03"30.06"30.06"30.06"30.06"30.06"30.06"30.06"30.03"30.03"30.03"30.03"30.03"30.06"30.06"30.06"30.06"30.06"30.03"30.03"30"30"30"30"30"30"30.03"30.06"30.06"30.06"30.03"30.03"30.03"30.03"30.03"30.06"30.09"30.09"30.09"30.12"30.12"
Wind Speed 3.9 mph6.4 mph11 mph12.8 mph12.3 mph11.8 mph16.9 mph14.8 mph13.8 mph9 mph13.6 mph10.9 mph9.9 mph8.4 mph6.1 mph4.7 mph5.8 mph6.4 mph6.8 mph5.2 mph5.5 mph6.2 mph6.8 mph6.2 mph3 mph2.5 mph9 mph13.7 mph15 mph14.4 mph11.4 mph12.2 mph12.3 mph7.8 mph5.8 mph9.9 mph12.1 mph9.2 mph7.3 mph5.5 mph4.5 mph5.7 mph6.5 mph5.7 mph5.7 mph5.3 mph5.8 mph4.8 mph
Wind
Direction
153°
SSE
117°
ESE
111°
ESE
125°
SE
138°
SE
147°
SSE
126°
SE
141°
SE
171°
S
229°
SW
201°
SSW
197°
SSW
217°
SW
231°
SW
237°
WSW
220°
SW
207°
SSW
202°
SSW
214°
SW
229°
SW
220°
SW
228°
SW
235°
SW
246°
WSW
241°
WSW
114°
ESE
109°
ESE
124°
SE
144°
SE
152°
SSE
151°
SSE
147°
SSE
163°
SSE
179°
S
210°
SSW
245°
WSW
225°
SW
216°
SW
222°
SW
245°
WSW
238°
WSW
217°
SW
229°
SW
237°
WSW
235°
SW
231°
SW
235°
SW
244°
WSW

Daily Forecast

Date High Low Precip. Humidity
Today
Jul 1

Rain
89 °F
74 °F
100%
66%
Saturday
Jul 2

Rain
89 °F
74 °F
100%
53%
Sunday
Jul 3

Rain
86 °F
75 °F
100%
64%
Monday
Jul 4

Rain
88 °F
74 °F
58%
60%
Tuesday
Jul 5

Rain
87 °F
77 °F
79%
60%
Wednesday
Jul 6

Rain
89 °F
78 °F
90%
60%
Thursday
Jul 7

Rain
90 °F
77 °F
88%
60%
Friday
Jul 8

Rain
92 °F
75 °F
96%
57%
Saturday
Jul 9

Rain
87 °F
75 °F
85%
64%
Sunday
Jul 10

Rain
90 °F
76 °F
79%
56%
Monday
Jul 11

Rain
92 °F
78 °F
38%
51%
Tuesday
Jul 12

Rain
89 °F
79 °F
48%
59%
Wednesday
Jul 13

Rain
90 °F
79 °F
59%
59%
Thursday
Jul 14

Rain
91 °F
79 °F
68%
58%
Friday
Jul 15

Rain
92 °F
77 °F
41%
53%
Saturday
Jul 16

Rain
94 °F
79 °F
38%
44%

Temperature 8-14 Day Outlook



Precipitation 8-14 Day Outlook




Quick Links
Guana Lake News
Guana Lake Photos
Guana Lake Videos




About Us
Contact Us
Site Map
Search Site
Advertise With Us
   
Guana.LakesOnline.com
THE GUANA LAKE WEBSITE

Copyright 2022, Lakes Online
Privacy    |    Legal